sat.trackr.live / text

‹ back to catalog

STARLINK-3891

NORAD 52650 · 2022-052BE

PAYLOAD ACTIVE UNKNOWN

§ Identity

Operator
Country
US
Launch date
2022-05-14
Launch site
AFETR
Launch vehicle
Mass (kg)
RCS (m²)

Purposes: comms

External: N2YO · Heavens-Above · Gunter

§ Orbital elements

Epoch: 2026-05-24T18:31:49.268928Z

Period
95.44 min
Inclination
53.2145°
Eccentricity
0.0001206
Mean motion
15.08840226 rev/d
Perigee alt
538.9 km
Apogee alt
540.6 km
Semi-major
6,917.9 km
B*
5.7494e-5
RAAN
267.6804°
Arg perigee
83.4913°
Mean anomaly
276.6216°
Rev number
22,276

§ Raw data

STARLINK-38911 52650U 22052BE  26144.77209802  .00000627  00000+0  57494-4 0  99982 52650  53.2145 267.6804 0001206  83.4913 276.6216 15.08840226222765

JSON: /api/v1/satellites/52650 · /tle

For live sub-satellite position, see the globe view (requires WebGL).

§ Visibility from observer

Set your observer location to see the next 7 days of passes ≥ 10°. The values pass through the URL so the page stays shareable.

No JS? Fill the form by hand. The geolocation button needs JavaScript.